Regional Weather Roundup
Issued by NWS Sterling, VA

Home | Current Version | Previous Version | Text Only | Print | Product List | Glossary On
Versions: 1 2 3 4 5 6 7 8 9 10 11 12 13 14 15 16 17 18 19 20 21 22 23 24 25 26 27 28 29 30 31 32 33 34 35 36 37 38 39 40 41 42 43 44 45 46 47 48 49 50
000
ASUS41 KLWX 030610
RWRLWX

REGIONAL WEATHER ROUNDUP
NATIONAL WEATHER SERVICE BALTIMORE MD/WASHINGTON DC
200 AM EDT THU SEP 03 2015

Note: "FAIR" indicates few or no clouds below 12,000 feet
with no significant weather and/or obstructions to visibility.
 TC=TEMPERATURE CELSIUS

 * =Non NWS site. Station does not report precipitation (e.g. rain,
    snow, etc.), thunder, or fog.

DCZ001-MDZ009-015-VAZ040>042-051-053>054-030700-
WASHINGTON METRO

CITY           SKY/WX    TMP DP  RH WIND       PRES   REMARKS
WASHINGTON NAT FAIR      76  68  76 W5        29.93F
DULLES         FAIR      69  67  93 CALM      29.95F
ANDREWS AFB    FAIR      74  68  81 W7        29.92F
FT BELVOIR     FAIR      69  67  94 CALM      29.93F
QUANTICO       FAIR      72  66  81 NW5       29.94F
COLLEGE PARK*  FAIR      77  68  73 CALM      29.92F
LEESBURG*      FAIR      72  70  94 CALM      29.95F
MANASSAS*      FAIR      70  70 100 CALM      29.94F
GAITHERSBURG*  FAIR      70  64  83 W3        29.98F

$$

MDZ006>007-011-014-030700-
BALTIMORE METRO

CITY           SKY/WX    TMP DP  RH WIND       PRES   REMARKS
BWI AIRPORT    FAIR      72  68  87 CALM      29.92S
MD SCIENCE CTR   N/A     77  66  68 MISG      29.91F
ANNAPOLIS      FAIR      76  71  85 NW5       29.90F
FORT MEADE*    FAIR      66  64  94 CALM      29.95S

$$

MDZ012-015-019>023-030700-
MARYLAND EASTERN SHORE

CITY           SKY/WX    TMP DP  RH WIND       PRES   REMARKS
OCEAN CITY     FAIR      76  72  87 W6        29.90F
SALISBURY      FAIR      73  72  96 SW3       29.90F FOG
BAY BRIDGE AP*   N/A     77  68  73 W7        29.91F
CAMBRIDGE*     FAIR      72  68  88 CALM      29.90F

$$

MDZ017>025-030700-
SOUTHERN MARYLAND

CITY           SKY/WX    TMP DP  RH WIND       PRES   REMARKS
PATUXENT RIVER FAIR      74  66  76 W9        29.92F
ST INIGOES     FAIR      75  70  84 W3        29.92F
LEONARDTOWN*   NOT AVBL

$$

MDZ003>005-030700-
NORTH CENTRAL MARYLAND

CITY           SKY/WX    TMP DP  RH WIND       PRES   REMARKS
FREDERICK*     FAIR      68  68 100 CALM      29.96F FOG
HAGERSTOWN APT FAIR      70  67  90 SE3       29.96F FOG
WESTMINSTER*   FAIR      72  66  83 CALM      29.95F

$$

MDZ501>502-030700-
WESTERN MARYLAND

CITY           SKY/WX    TMP DP  RH WIND       PRES   REMARKS
OAKLAND*       FAIR      63  61  94 SW3       30.10F
CUMBERLAND*    CLOUDY    68  68 100 CALM      30.03F VSB<1/4

$$

VAZ025>031-030700-
SHENANDOAH VALLEY

CITY           SKY/WX    TMP DP  RH WIND       PRES   REMARKS
WINCHESTER*    FAIR      68  66  94 CALM      29.97F
FRONT ROYAL*   FAIR      66  64  94 S8        29.97F
LURAY*         FOG       63  63 100 CALM      30.01F VSB 1
NEW MARKET*    FAIR      64  64 100 CALM      30.00F
STAUNTON*      FAIR      66  64  92 W3        30.04F FOG
WAYNESBORO*    FAIR      65  63  95 CALM      30.03F

$$

WVZ021-048>050-054>055-030700-
EASTERN WEST VIRGINIA PANHANDLE

CITY           SKY/WX    TMP DP  RH WIND       PRES   REMARKS
MARTINSBURG    FAIR      66  65  96 CALM      29.97F FOG
PETERSBURG*    FOG       64  64 100 CALM      30.02F VSB 1/4

$$

VAZ036>039-050-030700-
CENTRAL FOOTHILLS

CITY           SKY/WX    TMP DP  RH WIND       PRES   REMARKS
CHARLOTTESVILL FAIR      68  65  90 W3        29.97F
CULPEPER*      FAIR      65  64  99 CALM      29.96F FOG
ORANGE*        FAIR      68  64  88 S3        29.98F
GORDONSVILLE*  FAIR      64  64  97 CALM      29.96F
WARRENTON*     FAIR      67  67  98 CALM      29.95F

$$

VAZ055>057-030700-
NORTH AND CENTRAL PIEDMONT

CITY           SKY/WX    TMP DP  RH WIND       PRES   REMARKS
FREDERICKSBRG* FAIR      73  69  88 W3        29.94F
STAFFORD*      FAIR      68  65  88 CALM      29.98F

$$

NCZ024-NYZ072-PAZ021-071-VAZ022-071-030700-
OTHER REGIONAL OBSERVATIONS

CITY           SKY/WX    TMP DP  RH WIND       PRES   REMARKS
NEW YORK CITY  FAIR      78  70  76 CALM      29.90S
PHILADELPHIA   FAIR      77  70  79 CALM      29.89F
PITTSBURGH     MOCLDY    73  66  78 CALM      30.00F
ROANOKE        FAIR      68  64  87 SE5       30.04F
RICHMOND       FAIR      71  67  87 NW3       29.95F
RALEIGH        FAIR      71  69  93 CALM      29.98F

$$

ANZ530>537-030700-
MARINE OBSERVATIONS

STATION/POSITION TIME  TEMP    WIND        PRES
                       AIR SEA DIR/SP/G
                 (UTC) (F)     (DEG/KT/KT) (MB)
THOMAS PT LIGHT  0500   78 81  290/  9/ 10 1013.6F
BALT KEY BRIDGE  0500   77     250/  8/ 10 1013.0F
COVE POINT       0500   76     310/ 10/ 13 1013.8F
LEWISETTA        0500   74 81  250/  5/  6 1013.5R
SOLOMONS ISLAND  0500      81                N/A
PINEY POINT      0505          320/ 13/ 14   N/A

$$




USA.gov is the U.S. government's official web portal to all federal, state and local government web resources and services.